GW719 Weather Reports


time (UTC)temp
F
wind
direction
speed
knots
gust
knots
rain 1hr
in
rain 24hr
in
rain mn
in
humidity
%
barometer
mb
20260510164516 65 3 1.7 4.3 0.00 0.01 0.01 74 1018.2
20260510163516 65 3 2.6 4.3 0.00 0.01 0.01 76 1017.6
20260510162536 64 13 0.9 3.5 0.00 0.01 0.01 78 1017.3
20260510161516 64 15 0.9 2.6 0.00 0.01 0.01 78 1016.8
20260510160517 64 20 1.7 3.5 0.00 0.01 0.01 78 1016.9
20260510155549 64 14 2.6 5.2 0.00 0.01 0.01 77 1016.5
20260510154537 64 9 1.7 4.3 0.00 0.01 0.01 78 1015.9
20260510153520 64 9 1.7 4.3 0.00 0.01 0.01 78 1015.7
20260510152517 64 7 2.6 5.2 0.00 0.01 0.01 78 1015.7
20260510151517 64 8 0.9 2.6 0.00 0.01 0.01 81 1015.6
20260510150518 64 11 0.9 1.7 0.00 0.01 0.01 82 1015.4
20260510145537 64 15 0.0 1.7 0.00 0.01 0.01 82 1015.3
20260510144518 64 126 0.0 1.7 0.00 0.01 0.01 82 1015.0
20260510143518 64 12 0.9 1.7 0.00 0.01 0.01 84 1015.3
20260510142519 63 0.0 0.0 0.00 0.01 0.01 83 1015.0
20260510141518 63 204 0.0 1.7 0.00 0.01 0.01 84 1015.2
20260510140518 63 46 0.0 0.9 0.00 0.01 0.01 85 1015.5
20260510135518 63 0.0 0.0 0.00 0.01 0.01 86 1015.2
20260510134538 63 12 0.0 1.7 0.00 0.01 0.01 87 1015.4
20260510133516 63 32 0.0 1.7 0.00 0.01 0.01 87 1015.3
20260510132516 63 0.0 0.0 0.00 0.01 0.01 86 1015.5
20260510131516 63 189 0.9 2.6 0.00 0.01 0.01 86 1015.4
20260510130516 62 206 0.9 2.6 0.00 0.01 0.01 88 1015.5
20260510125516 62 234 0.0 2.6 0.00 0.01 0.01 89 1015.4
20260510124517 62 0.0 0.0 0.00 0.01 0.01 89 1015.2
20260510123517 62 0.0 0.0 0.00 0.01 0.01 89 1014.6
20260510122517 62 0.0 0.0 0.00 0.01 0.01 89 1014.3
20260510121517 62 0.0 0.0 0.00 0.01 0.01 89 1013.9
20260510120517 62 0.0 0.0 0.00 0.01 0.01 89 1013.7
20260510115517 61 0.0 0.0 0.00 0.01 0.01 89 1013.3
20260510114517 62 0.0 0.0 0.00 0.01 0.01 89 1012.8
20260510113518 62 0.0 0.0 0.00 0.01 0.01 87 1012.7
20260510112518 62 354 0.0 0.9 0.00 0.01 0.01 86 1012.5
20260510111518 62 0.0 0.0 0.00 0.01 0.01 85 1012.5
20260510110538 63 0.0 0.0 0.00 0.01 0.01 84 1012.4
20260510105538 63 0.0 0.0 0.00 0.01 0.01 82 1012.1
20260510104515 64 151 0.0 0.9 0.00 0.01 0.01 80 1012.0
20260510103515 64 17 0.0 0.9 0.00 0.01 0.01 79 1012.0
20260510102519 65 71 0.0 1.7 0.00 0.01 0.01 78 1011.9
20260510101519 64 92 0.9 4.3 0.00 0.01 0.01 80 1011.8
20260510100536 64 103 0.0 1.7 0.00 0.01 0.01 80 1011.7
20260510095536 63 72 0.0 1.7 0.00 0.01 0.01 82 1011.6
20260510094516 63 0.0 0.0 0.00 0.01 0.01 83 1011.6
20260510093516 64 199 0.0 0.9 0.00 0.01 0.01 80 1011.4
20260510092517 64 212 0.0 0.9 0.00 0.01 0.01 80 1011.2
20260510091517 64 172 0.0 0.9 0.00 0.01 0.01 78 1011.2
20260510090517 64 0.0 0.0 0.00 0.01 0.01 78 1011.4
20260510085517 64 0.0 0.0 0.00 0.01 0.01 77 1011.2
20260510084518 65 0.0 0.0 0.00 0.01 0.01 77 1010.8
20260510083520 66 211 0.0 0.9 0.00 0.01 0.01 76 1010.2
20260510082538 66 13 0.9 2.6 0.00 0.01 0.01 75 1009.8
20260510081518 66 13 0.9 2.6 0.00 0.01 0.01 75 1009.4
20260510080518 66 8 3.5 4.3 0.00 0.01 0.01 75 1009.1
20260510075519 66 8 0.9 3.5 0.00 0.01 0.01 76 1008.2
20260510074519 66 258 0.9 5.2 0.01 0.01 0.01 76 1008.3
20260510073516 66 242 1.7 5.2 0.01 0.01 0.01 76 1008.3
20260510072516 65 29 1.7 4.3 0.01 0.01 0.01 78 1009.1
20260510071537 65 204 2.6 12.2 0.01 0.01 0.01 80 1009.4
20260510070516 65 191 7.0 12.2 0.01 0.01 0.01 79 1009.6
20260510065516 66 193 8.7 17.4 0.01 0.01 0.01 76 1009.7
20260510064517 68 193 6.1 11.3 0.00 0.00 0.00 67 1011.5
20260510063517 69 261 4.3 10.4 0.00 0.00 0.00 64 1012.7
20260510062517 70 262 6.1 13.9 0.00 0.00 0.00 62 1012.8
20260510061517 70 224 1.7 3.5 0.00 0.00 0.00 62 1012.3
20260510060559 70 180 1.7 2.6 0.00 0.00 0.00 64 1012.2
20260510055518 70 252 2.6 4.3 0.00 0.00 0.00 67 1012.1
20260510054518 69 81 1.7 4.3 0.00 0.00 0.00 66 1012.0
20260510053518 68 31 0.9 2.6 0.00 0.00 0.00 67 1012.3
20260510052517 67 0.0 0.0 0.00 0.00 0.00 69 1012.5
20260510051518 67 0.0 0.0 0.00 0.00 0.00 71 1012.4
20260510050516 67 4 0.0 1.7 0.00 0.00 0.00 74 1012.3
20260510045516 67 25 0.0 0.9 0.00 0.00 0.00 76 1011.8
20260510044516 68 8 0.9 2.6 0.00 0.00 0.00 76 1011.0
20260510043516 67 12 0.0 1.7 0.00 0.00 0.00 72 1010.9
20260510042516 68 0.0 0.0 0.00 0.00 0.00 71 1010.8
20260510041516 68 192 0.0 0.0 0.00 0.00 0.00 71 1010.7
20260510040517 68 0.0 0.0 0.00 0.00 0.00 71 1010.7
20260510035517 69 0.0 0.0 0.00 0.00 0.00 69 1010.6
20260510034517 69 0.0 0.0 0.00 0.00 0.00 69 1010.5
20260510033517 69 0.0 0.0 0.00 0.00 0.00 68 1010.5
20260510032517 69 0.0 0.0 0.00 0.00 0.00 69 1010.4
20260510031517 69 85 0.0 0.9 0.00 0.00 0.00 68 1010.4
20260510030520 69 0.0 0.0 0.00 0.00 0.00 68 1010.4
20260510025518 69 0.0 0.0 0.00 0.00 0.00 67 1010.4
20260510024558 70 0.0 0.0 0.00 0.00 0.00 66 1010.1
20260510023518 71 18 0.0 0.9 0.00 0.00 0.00 62 1009.8
20260510022519 72 0.0 0.0 0.00 0.00 0.00 57 1009.2
20260510021515 72 0.0 0.0 0.00 0.00 0.00 55 1008.8
20260510020516 73 0.0 0.0 0.00 0.00 0.00 52 1008.7
20260510015516 74 74 0.0 0.9 0.00 0.00 0.00 52 1008.4
20260510014516 75 0.0 0.0 0.00 0.00 0.00 50 1008.3
20260510013516 76 102 0.0 2.6 0.00 0.00 0.00 47 1008.1
20260510012516 77 144 0.0 0.9 0.00 0.01 0.00 46 1008.0
20260510011516 77 127 0.0 1.7 0.00 0.03 0.00 44 1007.9
20260510010516 78 102 0.0 1.7 0.00 0.03 0.00 42 1007.8
20260510005517 79 155 0.0 1.7 0.00 0.03 0.00 40 1007.7
20260510004517 80 167 0.9 3.5 0.00 0.03 0.00 38 1007.6
20260510003537 80 182 0.9 3.5 0.00 0.03 0.00 37 1007.5
20260510002518 81 153 1.7 4.3 0.00 0.21 0.00 36 1007.5
20260510001518 81 159 1.7 5.2 0.00 0.23 0.00 37 1007.5
20260510000517 81 112 1.7 5.2 0.00 0.24 0.00 38 1007.5
20260509235518 82 134 2.6 6.1 0.00 0.25 0.00 37 1007.5
20260509234518 82 126 2.6 7.0 0.00 0.27 0.00 36 1007.6
20260509233518 82 111 1.7 5.2 0.00 0.27 0.00 36 1007.6
20260509232516 82 170 2.6 7.0 0.00 0.27 0.00 36 1007.7
20260509231516 82 127 2.6 7.0 0.00 0.27 0.00 36 1007.8
20260509230516 83 102 2.6 6.1 0.00 0.27 0.00 36 1007.9
20260509225516 83 119 2.6 6.1 0.00 0.27 0.00 35 1008.0
20260509224516 83 99 3.5 8.7 0.00 0.27 0.00 34 1008.0
20260509223536 84 138 2.6 5.2 0.00 0.27 0.00 34 1007.8
20260509222517 84 107 3.5 7.0 0.00 0.27 0.00 33 1007.7
20260509221537 84 105 2.6 6.1 0.00 0.27 0.00 29 1007.8
20260509220517 84 102 3.5 7.8 0.00 0.27 0.00 29 1007.9
20260509215518 84 111 1.7 4.3 0.00 0.27 0.00 31 1007.9
20260509214517 84 100 3.5 9.6 0.00 0.27 0.00 29 1007.9
20260509213522 85 101 3.5 7.0 0.00 0.27 0.00 29 1007.9
20260509212518 84 109 2.6 8.7 0.00 0.27 0.00 28 1008.0
20260509211538 85 103 3.5 7.8 0.00 0.27 0.00 24 1008.1
20260509210518 85 117 2.6 5.2 0.00 0.27 0.00 27 1008.3
20260509205518 85 106 2.6 7.0 0.00 0.27 0.00 29 1008.4
20260509204518 84 72 3.5 7.8 0.00 0.27 0.00 28 1008.5
20260509203518 84 91 3.5 6.1 0.00 0.27 0.00 26 1008.9
20260509202516 85 104 2.6 7.8 0.00 0.27 0.00 31 1008.6
20260509201516 85 131 1.7 4.3 0.00 0.27 0.00 31 1008.6
20260509200516 84 176 3.5 8.7 0.00 0.27 0.00 34 1008.7
20260509195516 84 107 2.6 7.0 0.00 0.27 0.00 33 1008.7
20260509194516 85 114 3.5 7.0 0.00 0.27 0.00 31 1009.0
20260509193517 85 135 1.7 5.2 0.00 0.27 0.00 31 1009.0
20260509192536 84 154 1.7 4.3 0.00 0.27 0.00 28 1009.1
20260509191519 85 159 1.7 6.1 0.00 0.27 0.00 29 1009.1
20260509190517 83 102 1.7 5.2 0.00 0.27 0.00 37 1009.1
20260509185637 83 114 1.7 4.3 0.00 0.27 0.00 37 1009.1
20260509184517 84 92 3.5 7.0 0.00 0.27 0.00 38 1009.1
20260509183517 83 114 0.9 3.5 0.00 0.27 0.00 37 1009.2
20260509182537 83 155 0.9 3.5 0.00 0.27 0.00 39 1009.3
20260509181518 82 45 1.7 3.5 0.00 0.27 0.00 45 1009.4
20260509180518 81 105 2.6 6.1 0.00 0.27 0.00 45 1009.6
20260509175518 80 148 1.7 4.3 0.00 0.27 0.00 45 1009.7
20260509174538 80 178 2.6 6.1 0.00 0.27 0.00 45 1009.9
20260509173518 79 173 1.7 7.0 0.00 0.27 0.00 49 1010.0
20260509172516 79 176 1.7 3.5 0.00 0.27 0.00 53 1010.2
20260509171516 79 205 2.6 5.2 0.00 0.27 0.00 55 1010.2
20260509170516 79 219 1.7 3.5 0.00 0.27 0.00 58 1010.2
20260509165516 79 165 1.7 7.0 0.00 0.27 0.00 59 1010.2